Location: Ladysmith
(45.4630°N, 91.1040°W)
Time: 10:51:58
(UTC-05:00)

Amateur Radio Satellites - All Passes

Search period start: 23 July 2014 10:21
Search period end: 24 July 2014 10:21
Location: Ladysmith, 45.4630°N, 91.1040°W

Satellite Date Start Highest point End Downlink Frequencies (MHz)
Time Altitude Azimuth
PCSat 23 Jul 10:23:20 10:28:12 32° 46° (NE) 10:33:03 145.825 MHz
KITSAT 1 23 Jul 10:32:39 10:39:22 28° 329° (NNW) 10:46:06 435.175 FM
Oscar 11 23 Jul 10:47:10 10:51:29 61° 101° (E) 10:55:46 145.825 FM, Beacon 2401.500 USB
Saudisat 1A 23 Jul 10:50:06 10:54:11 36° 315° (NW) 10:58:17 436.775 MHz
FUNcube-1 23 Jul 10:51:22 10:54:50 25° 94° (E) 10:58:16 145.950 - 145.970 MHz USB
UKube-1 23 Jul 11:31:39 11:35:18 26° 295° (WNW) 11:38:56 145.840 MHz, 145.915 MHz
Sapphire 23 Jul 11:32:18 11:37:46 88° 58° (ENE) 11:43:12 437.095 MHz 1200 baud AX-25 AFSK
HO-68 23 Jul 11:36:24 11:42:56 40° 298° (WNW) 11:49:26 435.675 MHz FM
Oscar 16 23 Jul 11:53:21 11:53:29 10° 53° (NE) 11:53:38 437.025 USB, Beacon 2401.1428
PCSat 23 Jul 12:06:37 12:11:49 47° 245° (WSW) 12:16:58 145.825 MHz
Oscar 11 23 Jul 12:24:41 12:27:12 15° 299° (WNW) 12:29:43 145.825 FM, Beacon 2401.500 USB
FUNcube-1 23 Jul 12:27:36 12:31:16 31° 292° (WNW) 12:34:56 145.950 - 145.970 MHz USB
AO-Echo 23 Jul 12:30:23 12:31:45 11° 54° (NE) 12:33:07 ?
KITSAT 1 23 Jul 12:33:05 12:38:02 17° 359° (N) 12:42:59 435.175 FM
Oscar 19 23 Jul 13:00:03 13:04:40 36° 67° (ENE) 13:09:19 437.125 CW, 437.150 USB
JAS-1B 23 Jul 13:08:53 13:16:00 28° 51° (NE) 13:23:40 435.800 - 435.900 CW/SSB
Sapphire 23 Jul 13:17:38 13:20:25 14° 257° (WSW) 13:23:11 437.095 MHz 1200 baud AX-25 AFSK
AO-7 23 Jul 13:23:34 13:24:23 10° 32° (NNE) 13:25:12 29.400 - 29.500 MHz
TMSAT-1 23 Jul 13:25:01 13:25:25 10° 53° (NE) 13:25:48 436.925 FM
RS-15 23 Jul 13:25:43 13:34:13 26° 103° (ESE) 13:42:33 29.354 - 29.394 USB, Beacon 29.352 USB
Oscar 16 23 Jul 13:26:48 13:31:51 64° 72° (ENE) 13:36:56 437.025 USB, Beacon 2401.1428
ITAMSAT 1 23 Jul 13:35:07 13:39:52 37° 66° (ENE) 13:44:37 435.822 SSB
Gurwin Techsat 1B 23 Jul 13:41:35 13:45:15 19° 60° (ENE) 13:48:56 435.225 FM
AO-27 23 Jul 13:52:17 13:57:20 52° 70° (ENE) 14:02:25 436.795 MHz FM
Uribyol 2 23 Jul 13:55:45 14:00:51 58° 71° (ENE) 14:05:58 436.500 FM
AO-Echo 23 Jul 14:04:17 14:09:30 65° 72° (ENE) 14:14:48 ?
SO-50 23 Jul 14:12:47 14:16:58 40° 118° (ESE) 14:21:14 436.795 FM
KITSAT 1 23 Jul 14:30:13 14:36:47 26° 29° (NNE) 14:43:19 435.175 FM
Oscar 19 23 Jul 14:39:31 14:44:02 31° 264° (W) 14:48:36 437.125 CW, 437.150 USB
JAS-1B 23 Jul 14:56:35 15:05:11 90° 74° (ENE) 15:15:02 435.800 - 435.900 CW/SSB
TMSAT-1 23 Jul 14:59:04 15:04:17 61° 72° (ENE) 15:09:31 436.925 FM
AO-7 23 Jul 15:07:21 15:14:44 37° 56° (NE) 15:22:08 29.400 - 29.500 MHz
Oscar 16 23 Jul 15:08:18 15:11:39 18° 270° (W) 15:15:02 437.025 USB, Beacon 2401.1428
UOSAT-12 23 Jul 15:10:19 15:12:15 13° 108° (ESE) 15:14:12 437.025 FM, 437.400 FM
ITAMSAT 1 23 Jul 15:14:45 15:19:23 32° 264° (W) 15:24:03 435.822 SSB
Gurwin Techsat 1B 23 Jul 15:19:25 15:24:42 68° 258° (WSW) 15:30:01 435.225 FM
AO-27 23 Jul 15:33:07 15:37:09 22° 267° (W) 15:41:12 436.795 MHz FM
RS-15 23 Jul 15:34:00 15:45:09 88° 305° (NW) 15:56:09 29.354 - 29.394 USB, Beacon 29.352 USB
Uribyol 2 23 Jul 15:36:56 15:40:42 20° 268° (W) 15:44:29 436.500 FM
AO-Echo 23 Jul 15:45:07 15:48:43 18° 270° (W) 15:52:22 ?
SO-50 23 Jul 15:53:38 15:57:38 30° 318° (NW) 16:01:43 436.795 FM
Uosat F 23 Jul 15:56:20 16:01:12 51° 70° (ENE) 16:06:06 435.120 FM
Saudisat 1A 23 Jul 15:56:51 15:58:42 12° 27° (NNE) 16:00:33 436.775 MHz
OPAL 23 Jul 16:24:33 16:28:44 26° 97° (E) 16:32:56 ?
KITSAT 1 23 Jul 16:25:31 16:33:39 74° 54° (NE) 16:41:42 435.175 FM
JAS-2 23 Jul 16:31:03 16:35:52 18° 53° (NE) 16:40:30 435.800 - 435.900 CW/SSB, 435.910 FM
TMSAT-1 23 Jul 16:40:54 16:44:38 19° 269° (W) 16:48:23 436.925 FM
UOSAT-12 23 Jul 16:47:03 16:51:40 87° 306° (NW) 16:56:24 437.025 FM, 437.400 FM
JAS-1B 23 Jul 16:50:25 16:57:00 24° 276° (W) 17:04:15 435.800 - 435.900 CW/SSB
AO-7 23 Jul 16:58:54 17:07:08 61° 256° (WSW) 17:15:26 29.400 - 29.500 MHz
Hamsat 23 Jul 17:29:17 17:32:54 29° 68° (ENE) 17:36:32 145.90 MHz
Saudisat 1A 23 Jul 17:35:00 17:39:19 51° 49° (NE) 17:43:36 436.775 MHz
Uosat F 23 Jul 17:36:27 17:40:17 22° 267° (W) 17:44:08 435.120 FM
RS-15 23 Jul 17:49:13 17:59:06 36° 333° (NNW) 18:09:01 29.354 - 29.394 USB, Beacon 29.352 USB
OPAL 23 Jul 18:03:01 18:07:47 44° 294° (WNW) 18:12:34 ?
JAS-2 23 Jul 18:11:57 18:19:46 72° 72° (ENE) 18:27:13 435.800 - 435.900 CW/SSB, 435.910 FM
KITSAT 1 23 Jul 18:21:49 18:28:19 28° 254° (WSW) 18:34:48 435.175 FM
UOSAT-12 23 Jul 18:29:14 18:32:31 19° 327° (NNW) 18:35:51 437.025 FM, 437.400 FM
STRAND 1 23 Jul 18:38:49 18:41:37 15° 89° (E) 18:44:24 ?
HO-68 23 Jul 18:39:06 18:40:02 10° 41° (NE) 18:40:58 435.675 MHz FM
SO-67 23 Jul 18:51:31 18:54:38 32° 71° (ENE) 18:57:46 435.3500 MHz FM
AO-7 23 Jul 18:59:24 19:01:40 11° 277° (W) 19:03:57 29.400 - 29.500 MHz
Hamsat 23 Jul 19:05:19 19:08:52 27° 265° (W) 19:12:26 145.90 MHz
Saudisat 1A 23 Jul 19:15:16 19:18:35 21° 247° (WSW) 19:21:53 436.775 MHz
JAS-2 23 Jul 19:58:51 20:05:15 27° 269° (W) 20:11:29 435.800 - 435.900 CW/SSB, 435.910 FM
RS-15 23 Jul 20:06:32 20:15:36 28° 8° (N) 20:24:45 29.354 - 29.394 USB, Beacon 29.352 USB
STRAND 1 23 Jul 20:16:15 20:21:23 76° 287° (WNW) 20:26:28 ?
HO-68 23 Jul 20:19:16 20:25:57 44° 63° (ENE) 20:32:39 435.675 MHz FM
SO-67 23 Jul 20:25:33 20:27:49 16° 268° (W) 20:30:07 435.3500 MHz FM
UKube-1 23 Jul 20:52:49 20:56:52 39° 69° (ENE) 21:00:57 145.840 MHz, 145.915 MHz
SO-50 23 Jul 21:02:22 21:05:19 16° 31° (NNE) 21:08:19 436.795 FM
Oscar 11 23 Jul 21:44:12 21:48:27 63° 73° (ENE) 21:52:44 145.825 FM, Beacon 2401.500 USB
FUNcube-1 23 Jul 21:50:00 21:53:44 28° 68° (ENE) 21:57:25 145.950 - 145.970 MHz USB
STRAND 1 23 Jul 21:57:52 21:59:42 12° 305° (NW) 22:01:33 ?
HO-68 23 Jul 22:06:59 22:13:41 41° 262° (W) 22:20:24 435.675 MHz FM
RS-15 23 Jul 22:20:35 22:31:15 51° 40° (NE) 22:42:10 29.354 - 29.394 USB, Beacon 29.352 USB
UKube-1 23 Jul 22:29:49 22:33:13 22° 266° (W) 22:36:39 145.840 MHz, 145.915 MHz
SO-50 23 Jul 22:41:59 22:46:44 71° 52° (NE) 22:51:31 436.795 FM
MaSat-1 23 Jul 22:48:55 22:52:44 50° 111° (ESE) 22:57:13 437.345 MHz
Oscar 11 23 Jul 23:22:59 23:25:05 13° 271° (W) 23:27:10 145.825 FM, Beacon 2401.500 USB
FUNcube-1 23 Jul 23:26:14 23:30:05 30° 264° (W) 23:33:53 145.950 - 145.970 MHz USB
UOSAT-12 23 Jul 23:35:03 23:39:04 26° 39° (NE) 23:43:02 437.025 FM, 437.400 FM
Lituanica SAT-1 24 Jul 00:18:00 00:19:31 17° 140° (SE) 00:21:03 437.275 MHz beacon
SO-50 24 Jul 00:23:46 00:26:48 17° 250° (WSW) 00:29:51 436.795 FM
AO-40 24 Jul 00:25:46 05:56:52 35° 181° (S) 10:19:05 Beacon 2401.320
MaSat-1 24 Jul 00:27:06 00:30:29 22° 315° (NW) 00:34:14 437.345 MHz
RS-15 24 Jul 00:33:13 00:43:53 59° 245° (WSW) 00:54:57 29.354 - 29.394 USB, Beacon 29.352 USB
PCSat 24 Jul 01:09:32 01:12:42 16° 104° (ESE) 01:15:52 145.825 MHz
UOSAT-12 24 Jul 01:14:53 01:19:32 56° 239° (WSW) 01:24:06 437.025 FM, 437.400 FM
Oscar 16 24 Jul 01:37:11 01:40:48 19° 91° (E) 01:44:25 437.025 USB, Beacon 2401.1428
Lituanica SAT-1 24 Jul 01:50:08 01:52:11 38° 337° (NNW) 01:54:14 437.275 MHz beacon
ISS 24 Jul 01:56:13 01:59:17 34° 141° (SE) 02:02:22 145.800 FM
AO-27 24 Jul 02:04:29 02:07:30 15° 89° (E) 02:10:29 436.795 MHz FM
Uribyol 2 24 Jul 02:07:28 02:10:47 17° 90° (E) 02:14:04 436.500 FM
AO-Echo 24 Jul 02:10:44 02:14:12 18° 90° (E) 02:17:36 ?
Sapphire 24 Jul 02:16:12 02:21:25 53° 116° (ESE) 02:26:41 437.095 MHz 1200 baud AX-25 AFSK
JAS-1B 24 Jul 02:41:10 02:49:26 31° 88° (E) 02:56:50 435.800 - 435.900 CW/SSB
Oscar 19 24 Jul 02:47:58 02:53:10 78° 103° (ESE) 02:58:20 437.125 CW, 437.150 USB
PCSat 24 Jul 02:50:00 02:55:24 81° 303° (WNW) 03:00:52 145.825 MHz
RS-15 24 Jul 02:50:13 02:53:42 12° 266° (W) 02:57:14 29.354 - 29.394 USB, Beacon 29.352 USB
TMSAT-1 24 Jul 03:13:30 03:17:25 21° 91° (E) 03:21:18 436.925 FM
Oscar 16 24 Jul 03:15:29 03:20:33 60° 289° (WNW) 03:25:37 437.025 USB, Beacon 2401.1428
Lituanica SAT-1 24 Jul 03:23:55 03:25:23 16° 356° (N) 03:26:50 437.275 MHz beacon
ITAMSAT 1 24 Jul 03:24:37 03:29:50 78° 104° (ESE) 03:35:00 435.822 SSB
ISS 24 Jul 03:32:41 03:35:57 47° 339° (NNW) 03:39:14 145.800 FM
Gurwin Techsat 1B 24 Jul 03:33:30 03:38:32 41° 98° (E) 03:43:31 435.225 FM
OPAL 24 Jul 03:41:31 03:46:22 59° 69° (ENE) 03:51:15 ?
AO-27 24 Jul 03:42:23 03:47:35 74° 287° (WNW) 03:52:44 436.795 MHz FM
Uribyol 2 24 Jul 03:45:36 03:50:45 67° 288° (WNW) 03:55:50 436.500 FM
AO-Echo 24 Jul 03:48:19 03:53:27 62° 288° (WNW) 03:58:23 ?
Sapphire 24 Jul 04:00:24 04:05:07 30° 316° (NW) 04:09:52 437.095 MHz 1200 baud AX-25 AFSK
Uosat F 24 Jul 04:03:43 04:05:58 13° 88° (E) 04:08:12 435.120 FM
Oscar 19 24 Jul 04:28:44 04:31:53 17° 302° (WNW) 04:35:03 437.125 CW, 437.150 USB
JAS-1B 24 Jul 04:30:59 04:40:44 73° 290° (WNW) 04:49:18 435.800 - 435.900 CW/SSB
PCSat 24 Jul 04:35:56 04:39:42 19° 324° (NW) 04:43:29 145.825 MHz
TMSAT-1 24 Jul 04:52:31 04:57:43 57° 289° (WNW) 05:02:53 436.925 FM
Lituanica SAT-1 24 Jul 04:56:51 04:58:40 23° 16° (NNE) 05:00:29 437.275 MHz beacon
AO-7 24 Jul 04:57:58 05:05:48 42° 99° (E) 05:13:32 29.400 - 29.500 MHz
ITAMSAT 1 24 Jul 05:05:31 05:08:42 17° 302° (WNW) 05:11:53 435.822 SSB
ISS 24 Jul 05:10:14 05:13:11 27° 359° (N) 05:16:08 145.800 FM
Gurwin Techsat 1B 24 Jul 05:13:47 05:18:21 30° 296° (WNW) 05:22:53 435.225 FM
OPAL 24 Jul 05:22:17 05:25:39 18° 266° (W) 05:29:02 ?
AO-27 24 Jul 05:24:20 05:26:12 12° 306° (NW) 05:28:03 436.795 MHz FM
Uribyol 2 24 Jul 05:28:10 05:29:15 11° 307° (NW) 05:30:19 436.500 FM
Uosat F 24 Jul 05:40:20 05:45:24 83° 286° (WNW) 05:50:24 435.120 FM
STRAND 1 24 Jul 05:56:19 06:00:38 28° 64° (ENE) 06:04:59 ?
JAS-1B 24 Jul 06:22:40 06:29:29 22° 313° (NW) 06:35:55 435.800 - 435.900 CW/SSB
Lituanica SAT-1 24 Jul 06:29:28 06:31:33 44° 214° (SSW) 06:33:37 437.275 MHz beacon
ISS 24 Jul 06:47:11 06:50:26 44° 19° (NNE) 06:53:41 145.800 FM
Hamsat 24 Jul 06:48:01 06:52:07 44° 98° (E) 06:56:14 145.90 MHz
AO-7 24 Jul 06:50:46 06:58:43 50° 299° (WNW) 07:06:36 29.400 - 29.500 MHz
KITSAT 1 24 Jul 06:56:36 07:03:48 37° 109° (ESE) 07:11:02 435.175 FM
MaSat-1 24 Jul 07:04:56 07:09:37 30° 50° (NE) 07:14:15 437.345 MHz
JAS-2 24 Jul 07:05:40 07:11:48 49° 97° (E) 07:17:13 435.800 - 435.900 CW/SSB, 435.910 FM
Uosat F 24 Jul 07:21:14 07:23:23 13° 304° (NW) 07:25:32 435.120 FM
STRAND 1 24 Jul 07:34:47 07:39:39 42° 262° (W) 07:44:33 ?
SO-67 24 Jul 07:46:12 07:49:16 28° 96° (E) 07:52:18 435.3500 MHz FM
ISS 24 Jul 08:23:59 08:27:09 38° 218° (SW) 08:30:17 145.800 FM
Hamsat 24 Jul 08:24:44 08:27:49 20° 295° (WNW) 08:30:54 145.90 MHz
MaSat-1 24 Jul 08:42:06 08:47:14 49° 249° (WSW) 08:52:11 437.345 MHz
AO-7 24 Jul 08:45:44 08:49:33 14° 321° (NW) 08:53:22 29.400 - 29.500 MHz
KITSAT 1 24 Jul 08:50:53 08:58:52 60° 310° (NW) 09:06:54 435.175 FM
JAS-2 24 Jul 08:51:10 08:56:33 29° 300° (WNW) 09:01:26 435.800 - 435.900 CW/SSB, 435.910 FM
Sapphire 24 Jul 09:19:26 09:22:51 17° 34° (NNE) 09:26:15 437.095 MHz 1200 baud AX-25 AFSK
SO-67 24 Jul 09:19:38 09:22:10 19° 293° (WNW) 09:24:42 435.3500 MHz FM
Saudisat 1A 24 Jul 09:22:36 09:26:56 58° 121° (ESE) 09:31:18 436.775 MHz
HO-68 24 Jul 09:31:48 09:38:17 36° 96° (E) 09:44:42 435.675 MHz FM
PCSat 24 Jul 09:52:57 09:57:29 26° 42° (NE) 10:01:59 145.825 MHz
